Regional Weather Roundup
Issued by NWS Goodland, KS

Home | Current Version | Previous Version | Text Only | Print | Product List | Glossary Off
Versions: 1 2 3 4 5 6 7 8 9 10 11 12 13 14 15 16 17 18 19 20 21 22 23 24 25 26 27 28 29 30 31 32 33 34 35 36 37 38 39 40 41 42 43 44 45 46 47 48 49 50

000
ASUS43 KGLD 240008
RWRGLD

GOODLAND FORECAST AREA HOURLY WEATHER ROUNDUP
NATIONAL WEATHER SERVICE GOODLAND KS
600 PM MDT SUN JUL 23 2017

...OFFICIAL OBSERVATIONS...

CITY           SKY/WX    TMP DP  RH WIND       PRES   REMARKS
GOODLAND KS    SUNNY     89  54  30 SE10      30.05F
HILL CITY KS   SUNNY     94  58  29 E7        29.96F
IMPERIAL NEB   SUNNY     95  44  17 S8        30.00F
MCCOOK NEB     SUNNY     93  53  25 SE8       29.98F
AKRON CO       SUNNY     87  46  24 SE12      30.10F
BURLINGTON CO  SUNNY     88  54  31 SE10      30.09F
LIMON CO       SUNNY     81  49  32 SE13      30.16S
$$

...UNOFFICIAL OBSERVATIONS...

CITY           SKY/WX    TMP DP  RH WIND       PRES   REMARKS
LENORA KS        N/A     92  32  12 MISG        N/A
NORTON KS      SUNNY     93  52  24 NE8       29.97F
SHARON SPRINGS   N/A     90  55  30 E6          N/A
TRENTON NEB      N/A     95  32  11 SE6         N/A
KIT CARSON CO    N/A     90  52  27 MISG        N/A
YUMA CO        FAIR      88  36  15 SE9       30.07S
$$



USA.gov is the U.S. government's official web portal to all federal, state and local government web resources and services.